EW7356 Weather Reports


Display with metric or nautical units.
time (UTC)temp
F
wind
direction
speed
MPH
gust
MPH
rain 1hr
in
rain 24hr
in
rain mn
in
humidity
%
barometer
mb
20210119122029 14 0 0.0 1.0 0.00 0.00 0.00 87 1011.1
20210119121630 14 0 0.0 5.0 0.00 0.00 0.00 87 1011.0
20210119121031 14 0 0.0 5.0 0.00 0.00 0.00 87 1011.0
20210119120529 14 0 0.0 2.0 0.00 0.00 0.00 87 1010.8
20210119120134 14 259 0.0 4.0 0.00 0.00 0.00 87 1010.8
20210119115535 14 0 0.0 4.0 0.00 0.00 0.00 87 1010.8
20210119115036 14 227 0.0 2.0 0.00 0.00 0.00 88 1010.7
20210119114629 14 0 0.0 2.0 0.00 0.00 0.00 88 1010.7
20210119114046 14 0 0.0 3.0 0.00 0.00 0.00 88 1010.6
20210119113530 14 0 1.0 3.0 0.00 0.00 0.00 88 1010.5
20210119113055 14 0 0.0 3.0 0.00 0.00 0.00 88 1010.4
20210119112539 14 0 0.0 1.0 0.00 0.00 0.00 88 1010.3
20210119112045 14 254 0.0 1.0 0.00 0.00 0.00 88 1010.3
20210119111610 14 0 0.0 5.0 0.00 0.00 0.00 88 1010.1
20210119111033 14 0 0.0 5.0 0.00 0.00 0.00 88 1010.1
20210119110528 14 226 0.0 3.0 0.00 0.00 0.00 88 1010.1
20210119110114 14 0 0.0 2.0 0.00 0.00 0.00 88 1010.0
20210119105531 14 0 0.0 2.0 0.00 0.00 0.00 88 1010.0
20210119105037 14 15 0.0 2.0 0.00 0.00 0.00 88 1010.0
20210119104537 14 0 0.0 2.0 0.00 0.00 0.00 88 1010.0
20210119104037 14 0 0.0 2.0 0.00 0.00 0.00 88 1009.9
20210119103531 14 0 0.0 2.0 0.00 0.00 0.00 88 1009.9
20210119103053 14 0 0.0 2.0 0.00 0.00 0.00 88 1009.8
20210119102533 14 0 0.0 2.0 0.00 0.00 0.00 88 1009.6
20210119102039 14 0 0.0 2.0 0.00 0.00 0.00 88 1009.5
20210119101618 14 236 0.0 1.0 0.00 0.00 0.00 88 1009.5
20210119101034 14 0 0.0 2.0 0.00 0.00 0.00 88 1009.4
20210119100528 14 0 0.0 3.0 0.00 0.00 0.00 88 1009.4
20210119100110 14 0 0.0 3.0 0.00 0.00 0.00 88 1009.5
20210119095529 14 271 0.0 3.0 0.00 0.00 0.00 88 1009.3
20210119095029 14 0 0.0 2.0 0.00 0.00 0.00 88 1009.0
20210119094644 13 49 0.0 2.0 0.00 0.00 0.00 88 1009.1
20210119094053 13 236 0.0 1.0 0.00 0.00 0.00 88 1009.1
20210119093538 13 0 0.0 1.0 0.00 0.00 0.00 88 1009.0
20210119093101 13 0 0.0 1.0 0.00 0.00 0.00 88 1009.2
20210119092535 13 0 0.0 1.0 0.00 0.00 0.00 88 1009.4
20210119092030 13 0 0.0 1.0 0.00 0.00 0.00 88 1009.5
20210119091555 13 147 0.0 2.0 0.00 0.00 0.00 88 1009.5
20210119091039 13 0 0.0 2.0 0.00 0.00 0.00 88 1009.4
20210119090531 14 0 0.0 4.0 0.00 0.00 0.00 88 1009.3
20210119090110 14 155 0.0 4.0 0.00 0.00 0.00 88 1009.3
20210119085543 14 0 0.0 4.0 0.00 0.00 0.00 87 1009.1
20210119085038 14 0 0.0 4.0 0.00 0.00 0.00 87 1008.9
20210119084612 14 247 0.0 3.0 0.00 0.00 0.00 87 1008.8
20210119084043 14 0 0.0 3.0 0.00 0.00 0.00 87 1008.9
20210119083538 14 297 0.0 3.0 0.00 0.00 0.00 87 1009.1
20210119083101 14 269 0.0 2.0 0.00 0.00 0.00 87 1009.0
20210119082539 14 0 0.0 2.0 0.00 0.00 0.00 86 1008.9
20210119082111 14 0 0.0 2.0 0.00 0.00 0.00 86 1008.7
20210119081539 14 0 0.0 5.0 0.00 0.00 0.00 86 1008.6
20210119081035 15 0 0.0 5.0 0.00 0.00 0.00 86 1008.6
20210119080533 15 136 0.0 8.0 0.00 0.00 0.00 86 1008.6
20210119080109 15 0 0.0 8.0 0.00 0.00 0.00 86 1008.6
20210119075550 15 326 0.0 6.0 0.00 0.00 0.00 85 1008.7
20210119075032 15 252 0.0 5.0 0.00 0.00 0.00 85 1008.7
20210119074630 15 0 0.0 4.0 0.00 0.00 0.00 85 1008.8
20210119074030 15 0 0.0 4.0 0.00 0.00 0.00 85 1008.8
20210119073547 15 0 0.0 4.0 0.00 0.00 0.00 85 1008.9
20210119073100 15 330 0.0 4.0 0.00 0.00 0.00 85 1009.0
20210119072541 15 0 0.0 5.0 0.00 0.00 0.00 85 1008.9
20210119072031 15 0 0.0 5.0 0.00 0.00 0.00 85 1008.7
20210119071546 15 311 0.0 6.0 0.00 0.00 0.00 85 1008.5
20210119071046 15 0 1.0 6.0 0.00 0.00 0.00 85 1008.5
20210119070535 15 320 0.0 4.0 0.00 0.00 0.00 85 1008.3
20210119070119 15 0 0.0 4.0 0.00 0.00 0.00 85 1008.4
20210119065529 15 295 0.0 3.0 0.00 0.00 0.00 85 1008.4
20210119065027 15 112 0.0 4.0 0.00 0.00 0.00 85 1008.3
20210119064613 15 0 0.0 4.0 0.00 0.00 0.00 85 1008.3
20210119064038 15 235 0.0 3.0 0.00 0.00 0.00 85 1008.3
20210119063541 16 160 0.0 6.0 0.00 0.00 0.00 84 1008.3
20210119063136 16 0 1.0 6.0 0.00 0.00 0.00 84 1008.1
20210119062530 16 319 0.0 5.0 0.00 0.00 0.00 84 1007.8
20210119062036 16 0 1.0 5.0 0.00 0.00 0.00 84 1007.6
20210119061629 16 162 0.0 7.0 0.00 0.00 0.00 85 1007.6
20210119061041 16 266 1.0 8.0 0.00 0.00 0.00 85 1007.6
20210119060528 16 83 1.0 8.0 0.00 0.00 0.00 85 1007.6
20210119060158 16 0 1.0 5.0 0.00 0.00 0.00 85 1007.6
20210119055537 16 360 0.0 5.0 0.00 0.00 0.00 85 1007.5
20210119055108 16 0 0.0 3.0 0.00 0.00 0.00 85 1007.5
20210119054610 16 0 0.0 4.0 0.00 0.00 0.00 85 1007.4
20210119054041 16 103 1.0 4.0 0.00 0.00 0.00 85 1007.3
20210119053535 16 0 0.0 4.0 0.00 0.00 0.00 85 1007.4
20210119053119 16 360 0.0 8.0 0.00 0.00 0.00 84 1007.3
20210119052530 17 0 1.0 8.0 0.00 0.00 0.00 84 1007.4
20210119052028 17 266 0.0 4.0 0.00 0.00 0.00 84 1007.3
20210119051551 17 278 0.0 6.0 0.00 0.00 0.00 84 1007.3
20210119051031 17 193 0.0 6.0 0.00 0.00 0.00 84 1007.2
20210119050536 17 0 0.0 6.0 0.00 0.00 0.00 84 1007.2
20210119050120 17 210 1.0 6.0 0.00 0.00 0.00 84 1007.2
20210119045537 17 0 0.0 7.0 0.00 0.00 0.00 83 1007.2
20210119045030 17 321 1.0 7.0 0.00 0.00 0.00 83 1007.0
20210119044602 18 0 1.0 6.0 0.00 0.00 0.00 83 1006.9
20210119044046 18 352 0.0 6.0 0.00 0.00 0.00 83 1007.0
20210119043537 18 357 1.0 6.0 0.00 0.00 0.00 83 1006.9
20210119043121 18 0 0.0 10.0 0.00 0.00 0.00 83 1007.1
20210119042547 18 302 1.0 10.0 0.00 0.00 0.00 82 1007.0
20210119042038 18 23 2.0 8.0 0.00 0.00 0.00 82 1006.8
20210119041610 19 44 0.0 4.0 0.00 0.00 0.00 82 1007.0
20210119041029 19 0 1.0 3.0 0.00 0.00 0.00 82 1007.0
20210119040532 19 240 1.0 3.0 0.00 0.00 0.00 83 1007.0
20210119040145 19 175 0.0 7.0 0.00 0.00 0.00 83 1006.7
20210119035527 19 0 1.0 7.0 0.00 0.00 0.00 83 1006.9
20210119035035 19 264 1.0 6.0 0.00 0.00 0.00 82 1006.7
20210119034535 19 301 0.0 4.0 0.00 0.00 0.00 83 1006.7
20210119034028 19 285 1.0 4.0 0.00 0.00 0.00 83 1006.5
20210119033530 20 177 0.0 4.0 0.00 0.00 0.00 83 1006.6
20210119033052 20 333 0.0 6.0 0.00 0.00 0.00 83 1006.5
20210119032531 20 0 1.0 6.0 0.00 0.00 0.00 83 1006.4
20210119032040 20 0 0.0 6.0 0.00 0.00 0.00 83 1006.3
20210119031547 20 0 0.0 5.0 0.00 0.00 0.00 83 1006.4
20210119031033 21 0 0.0 6.0 0.00 0.00 0.00 82 1006.3
20210119030530 21 0 1.0 7.0 0.00 0.00 0.00 82 1006.2
20210119030102 21 328 1.0 7.0 0.00 0.00 0.00 82 1006.2
20210119025531 22 316 0.0 4.0 0.00 0.00 0.00 82 1006.2
20210119025038 22 0 0.0 5.0 0.00 0.00 0.00 82 1006.1
20210119024549 22 328 0.0 6.0 0.00 0.00 0.00 82 1006.1
20210119024032 23 337 0.0 6.0 0.00 0.00 0.00 81 1006.0
20210119023542 23 0 0.0 4.0 0.00 0.00 0.00 82 1006.0
20210119023120 23 0 0.0 6.0 0.00 0.00 0.00 81 1006.0
20210119022539 23 0 1.0 6.0 0.00 0.00 0.00 81 1005.8
20210119022035 23 0 0.0 7.0 0.00 0.00 0.00 81 1005.7
20210119021559 23 258 2.0 7.0 0.00 0.00 0.00 81 1005.7
20210119021038 23 0 0.0 4.0 0.00 0.00 0.00 80 1005.5
20210119020547 23 165 0.0 5.0 0.00 0.00 0.00 80 1005.5
20210119020121 23 265 1.0 5.0 0.00 0.00 0.00 80 1005.6
20210119015531 23 268 1.0 6.0 0.00 0.00 0.00 80 1005.5
20210119015031 23 130 1.0 7.0 0.00 0.00 0.00 80 1005.5
20210119014609 23 216 1.0 7.0 0.00 0.00 0.00 79 1005.3
20210119014028 23 247 1.0 7.0 0.00 0.00 0.00 80 1005.3
20210119013531 23 0 1.0 4.0 0.00 0.00 0.00 79 1005.3
20210119013111 23 307 0.0 4.0 0.00 0.00 0.00 79 1005.2
20210119012541 23 327 1.0 8.0 0.00 0.00 0.00 78 1005.2
20210119012037 23 247 1.0 8.0 0.00 0.00 0.00 78 1005.0
20210119011549 23 224 1.0 8.0 0.00 0.00 0.00 78 1005.0
20210119011036 23 264 1.0 5.0 0.00 0.00 0.00 78 1004.9
20210119010536 24 114 0.0 4.0 0.00 0.00 0.00 78 1004.9
20210119010144 24 0 0.0 5.0 0.00 0.00 0.00 78 1004.9
20210119005531 24 283 1.0 5.0 0.00 0.00 0.00 77 1004.9
20210119005031 24 287 0.0 5.0 0.00 0.00 0.00 78 1004.9
20210119004627 24 258 0.0 8.0 0.00 0.00 0.00 78 1004.7
20210119004042 24 0 1.0 8.0 0.00 0.00 0.00 78 1004.6
20210119003531 24 252 0.0 7.0 0.00 0.00 0.00 78 1004.5
20210119003059 24 37 1.0 7.0 0.00 0.00 0.00 78 1004.5
20210119002532 24 0 1.0 5.0 0.00 0.00 0.00 79 1004.3
20210119002031 24 0 1.0 7.0 0.00 0.00 0.00 78 1004.2
20210119001552 24 0 1.0 7.0 0.00 0.00 0.00 78 1004.1
20210119001032 24 0 1.0 7.0 0.00 0.00 0.00 77 1004.1
20210119000545 24 46 0.0 7.0 0.00 0.00 0.00 77 1003.9
20210119000114 25 0 0.0 10.0 0.00 0.00 0.00 77 1004.0
20210118235535 25 0 1.0 10.0 0.00 0.00 0.00 77 1003.8
20210118235039 25 359 1.0 4.0 0.00 0.00 0.00 76 1003.7
20210118234555 25 0 0.0 6.0 0.00 0.00 0.00 76 1003.7
20210118234035 25 309 1.0 6.0 0.00 0.00 0.00 76 1003.6
20210118233531 25 0 1.0 10.0 0.00 0.00 0.00 76 1003.5
20210118233049 25 145 2.0 10.0 0.00 0.00 0.00 76 1003.4
20210118232528 25 288 1.0 5.0 0.00 0.00 0.00 75 1003.3
20210118232044 25 0 2.0 5.0 0.00 0.00 0.00 76 1003.2
20210118231543 25 210 1.0 7.0 0.00 0.00 0.00 75 1003.1
20210118231033 25 207 1.0 7.0 0.00 0.00 0.00 75 1003.1
20210118230531 25 303 2.0 5.0 0.00 0.00 0.00 75 1003.0
20210118230122 26 316 0.0 6.0 0.00 0.00 0.00 75 1002.9
20210118225547 26 211 2.0 6.0 0.00 0.00 0.00 75 1002.9
20210118225033 26 333 1.0 4.0 0.00 0.00 0.00 75 1002.8
20210118224556 26 198 0.0 5.0 0.00 0.00 0.00 76 1002.8
20210118224038 26 0 0.0 5.0 0.00 0.00 0.00 75 1002.7
20210118223534 26 240 0.0 4.0 0.00 0.00 0.00 75 1002.6
20210118223057 27 234 0.0 5.0 0.00 0.00 0.00 74 1002.4
20210118222531 27 91 1.0 8.0 0.00 0.00 0.00 74 1002.3
20210118222038 27 233 1.0 8.0 0.00 0.00 0.00 74 1002.2
20210118221551 27 319 1.0 8.0 0.00 0.00 0.00 74 1002.1
20210118221045 27 200 1.0 8.0 0.00 0.00 0.00 74 1001.9
20210118220532 27 288 1.0 7.0 0.00 0.00 0.00 74 1001.9
20210118220057 28 166 0.0 5.0 0.00 0.00 0.00 74 1001.7
20210118215537 28 292 1.0 6.0 0.00 0.00 0.00 74 1001.7
20210118215036 28 153 1.0 6.0 0.00 0.00 0.00 75 1001.6
20210118214640 28 32 1.0 5.0 0.00 0.00 0.00 75 1001.6
20210118214033 28 314 1.0 4.0 0.00 0.00 0.00 74 1001.5
20210118213532 29 0 0.0 8.0 0.00 0.00 0.00 75 1001.4
20210118213058 29 279 0.0 8.0 0.00 0.00 0.00 75 1001.3
20210118212534 29 319 0.0 4.0 0.00 0.00 0.00 75 1001.2
20210118212037 29 87 1.0 6.0 0.00 0.00 0.00 75 1001.2
20210118211622 29 169 1.0 10.0 0.00 0.00 0.00 74 1001.2
20210118211038 29 0 1.0 10.0 0.00 0.00 0.00 74 1001.2
20210118210532 29 297 1.0 7.0 0.00 0.00 0.00 75 1001.0
20210118210117 30 103 1.0 6.0 0.00 0.00 0.00 75 1000.9
20210118205543 30 209 0.0 5.0 0.00 0.01 0.00 75 1000.9
20210118205037 30 264 1.0 5.0 0.00 0.01 0.00 76 1000.7
20210118204608 30 131 0.0 3.0 0.00 0.01 0.00 76 1000.5
20210118204038 30 0 0.0 4.0 0.00 0.01 0.00 77 1000.5
20210118203536 30 0 0.0 7.0 0.00 0.01 0.00 77 1000.5
20210118203118 30 241 2.0 7.0 0.00 0.01 0.00 77 1000.4
20210118202546 30 0 0.0 4.0 0.00 0.01 0.00 77 1000.4
20210118202037 30 77 1.0 4.0 0.00 0.01 0.00 77 1000.3
20210118201543 30 0 1.0 4.0 0.00 0.01 0.00 77 1000.2
20210118201046 31 0 0.0 5.0 0.00 0.01 0.00 77 1000.0
20210118200532 31 0 0.0 8.0 0.00 0.01 0.00 78 1000.1
20210118200128 30 300 1.0 8.0 0.00 0.01 0.00 77 1000.1
20210118195543 31 0 1.0 6.0 0.00 0.01 0.00 78 1000.0
20210118195036 31 209 1.0 7.0 0.00 0.01 0.00 79 1000.0
20210118194605 30 229 1.0 7.0 0.00 0.01 0.00 79 999.9
20210118194045 30 248 0.0 4.0 0.00 0.01 0.00 80 999.7
20210118193532 30 169 0.0 2.0 0.00 0.01 0.00 82 999.7
20210118193105 30 0 0.0 4.0 0.00 0.01 0.00 82 999.7
20210118192538 30 318 0.0 4.0 0.00 0.01 0.00 82 999.6
20210118192028 30 6 0.0 4.0 0.00 0.01 0.00 82 999.5
20210118191538 30 0 0.0 2.0 0.00 0.01 0.00 82 999.4
20210118191030 30 134 0.0 3.0 0.00 0.01 0.00 82 999.3
20210118190536 30 257 0.0 6.0 0.00 0.01 0.00 82 999.3
20210118190131 31 281 0.0 8.0 0.00 0.01 0.00 81 999.3
20210118185532 31 222 2.0 9.0 0.00 0.01 0.00 80 999.1
20210118185036 31 186 2.0 9.0 0.00 0.01 0.00 79 999.1
20210118184549 31 250 1.0 7.0 0.00 0.01 0.00 79 998.9
20210118184036 31 74 1.0 7.0 0.00 0.01 0.00 79 998.8
20210118183532 31 226 0.0 7.0 0.00 0.01 0.00 80 998.8
20210118183053 31 318 1.0 8.0 0.00 0.01 0.00 82 998.8
20210118182530 31 214 1.0 10.0 0.00 0.01 0.00 81 998.7
20210118182116 31 244 3.0 10.0 0.00 0.01 0.00 80 998.9
20210118181555 31 136 1.0 11.0 0.00 0.01 0.00 81 998.9
20210118181030 31 286 2.0 16.0 0.00 0.01 0.00 79 998.8
20210118180537 31 229 2.0 16.0 0.00 0.01 0.00 78 998.7
20210118180130 31 44 2.0 12.0 0.00 0.01 0.00 78 998.7
20210118175550 32 276 1.0 12.0 0.00 0.01 0.00 77 998.7
20210118175029 32 332 1.0 8.0 0.00 0.01 0.00 78 998.7
20210118174614 32 321 2.0 12.0 0.00 0.01 0.00 78 998.7
20210118174038 32 236 2.0 12.0 0.00 0.01 0.00 77 998.8
20210118173530 32 142 1.0 11.0 0.00 0.01 0.00 78 998.7
20210118173114 32 278 1.0 11.0 0.00 0.01 0.00 76 998.7
20210118172533 32 289 2.0 11.0 0.00 0.01 0.00 76 998.7
20210118172108 33 334 2.0 9.0 0.00 0.01 0.00 75 998.6
20210118171558 33 347 1.0 14.0 0.00 0.01 0.00 76 998.5
20210118171039 33 224 2.0 14.0 0.00 0.01 0.00 76 998.6
20210118170543 33 314 2.0 12.0 0.00 0.01 0.00 78 998.6
20210118170048 33 257 2.0 10.0 0.00 0.01 0.00 79 998.6
20210118165532 33 290 2.0 10.0 0.00 0.01 0.00 80 998.6
20210118165027 33 231 0.0 6.0 0.00 0.01 0.00 80 998.6
20210118164611 33 257 0.0 11.0 0.00 0.01 0.00 81 998.7
20210118164034 33 238 2.0 11.0 0.00 0.01 0.00 80 998.7
20210118163539 33 326 1.0 5.0 0.00 0.01 0.00 81 998.8
20210118163107 33 139 1.0 6.0 0.00 0.01 0.00 81 998.8
20210118162541 33 311 0.0 6.0 0.00 0.01 0.00 82 998.8
20210118162031 33 305 1.0 5.0 0.00 0.01 0.00 82 998.9
20210118161634 33 252 1.0 6.0 0.00 0.01 0.00 82 998.8
20210118161031 32 0 1.0 10.0 0.00 0.01 0.00 81 999.0
20210118160539 32 26 2.0 10.0 0.00 0.01 0.00 81 999.0
20210118160141 32 0 2.0 8.0 0.00 0.01 0.00 81 999.0
20210118155530 33 292 1.0 8.0 0.00 0.01 0.00 81 999.1
20210118155042 32 155 1.0 8.0 0.00 0.01 0.00 81 999.1
20210118154710 32 0 1.0 7.0 0.00 0.01 0.00 81 999.2
20210118154034 32 58 1.0 10.0 0.00 0.01 0.00 82 999.1
20210118153540 32 165 0.0 10.0 0.00 0.01 0.00 83 999.2
20210118153100 32 224 1.0 7.0 0.00 0.01 0.00 84 999.2
20210118152532 32 242 1.0 7.0 0.00 0.01 0.00 84 999.2
20210118152031 32 0 0.0 5.0 0.00 0.01 0.00 84 999.2
20210118151615 32 240 0.0 5.0 0.00 0.01 0.00 84 999.2
20210118151030 32 0 0.0 5.0 0.00 0.01 0.00 84 999.2
20210118150529 32 0 0.0 3.0 0.00 0.01 0.00 85 999.2
20210118150149 32 253 0.0 4.0 0.00 0.01 0.00 85 999.1
20210118145534 32 0 0.0 4.0 0.00 0.01 0.00 84 999.1
20210118145030 32 216 0.0 5.0 0.00 0.01 0.00 85 999.0
20210118144536 32 91 0.0 7.0 0.00 0.01 0.00 86 999.0
20210118144052 32 60 1.0 8.0 0.00 0.01 0.00 85 999.1
20210118143543 32 316 1.0 8.0 0.00 0.01 0.00 86 998.9
20210118143101 32 267 0.0 8.0 0.00 0.01 0.00 87 998.9
20210118142528 32 299 2.0 8.0 0.00 0.01 0.00 87 999.0
20210118142043 31 39 0.0 6.0 0.00 0.01 0.00 88 999.0
20210118141654 31 0 2.0 6.0 0.00 0.01 0.00 88 999.0
20210118141054 31 219 1.0 6.0 0.00 0.01 0.00 89 999.0
20210118140551 30 293 1.0 6.0 0.00 0.01 0.00 90 999.0
20210118140054 30 0 0.0 4.0 0.00 0.01 0.00 90 998.9
20210118135541 30 307 0.0 2.0 0.00 0.01 0.00 91 999.0
20210118135034 30 0 0.0 3.0 0.00 0.01 0.00 91 999.0
20210118134608 29 0 0.0 6.0 0.00 0.01 0.00 91 998.9
20210118134036 29 37 0.0 10.0 0.00 0.01 0.00 91 999.1
20210118133601 29 176 0.0 10.0 0.00 0.01 0.00 91 999.0
20210118133038 29 0 0.0 7.0 0.00 0.01 0.00 92 999.0
20210118132547 29 0 0.0 7.0 0.00 0.01 0.00 92 999.0
20210118132041 29 0 0.0 4.0 0.00 0.01 0.00 92 998.9
20210118131603 29 230 0.0 2.0 0.00 0.01 0.00 92 998.8
20210118131030 29 0 0.0 5.0 0.00 0.01 0.00 93 998.8
20210118130540 29 271 1.0 5.0 0.00 0.01 0.00 93 998.9
20210118130102 29 0 0.0 3.0 0.00 0.01 0.00 93 998.8
20210118125536 29 0 0.0 3.0 0.00 0.01 0.00 93 998.7
20210118125030 29 0 0.0 3.0 0.00 0.01 0.00 93 998.8
20210118124550 29 0 0.0 3.0 0.00 0.01 0.00 93 998.7
20210118124036 29 0 0.0 3.0 0.00 0.01 0.00 93 998.6
20210118123528 29 0 0.0 4.0 0.00 0.01 0.00 93 998.6
20210118123127 29 221 1.0 4.0 0.00 0.01 0.00 93 998.5
20210118122535 29 0 0.0 4.0 0.00 0.01 0.00 93 998.6